"Pseudo-MPEC" for ZTs0037

Created 2023 Jan 27 13:22:31 UT using Find_Orb

Click here for an explanation of pseudo-MPECs

 
 Astrometry: 
     ZTs0037* C2023 01 24.42800 13 11 57.04 +53 10 40.0    ~1OEq 17.36gUNEOCPI41
     ZTs0037  C2023 01 24.42835 13 11 54.66 +53 10 23.9    ~1OEq 17.36gUNEOCPI41
     ZTs0037  C2023 01 24.48144 13 06 17.14 +52 27 45.2    ~1OEq 17.32RUNEOCPI41
     ZTs0037  C2023 01 24.48179 13 06 14.96 +52 27 28.3    ~1OEq 17.32RUNEOCPI41
     ZTs0037  C2023 01 26.58255211 19 00.382+26 20 19.03   ~1QKM 17.14oVNEOCPT05
     ZTs0037  C2023 01 26.58571711 18 55.294+26 18 32.69   ~1QKM 17.00oVNEOCPT05
     ZTs0037  C2023 01 26.60334211 18 27.247+26 08 43.37   ~1QKM 17.07oVNEOCPT05
     ZTs0037 KC2023 01 26E7S)[Rv6WxBIE%=*#segZAstrometry-?Uq`D8*w7B*@W]p1MM/IK19
     ZTs0037 KC2023 01 26Q/OHm,AXsUfl17-/O7aA3EaD\2/d9s3redacted;j(9u4-ujsBU0K19
     ZTs0037 KC2023 01 26Od:@K[.KvR-.bqH[+l=G_lJtyyMAs]J]Qkcfy4c+AKGmM\x@yyYEK19
     ZTs0037 KC2023 01 27.01969711 09 41.882+22 31 56.35   ~1R0q 17.3 GVNEOCPJ95
     ZTs0037 KC2023 01 27.02189911 09 39.149+22 30 53.86   ~1R0q 17.1 GVNEOCPJ95
     ZTs0037 KC2023 01 27.02409111 09 36.427+22 29 51.97   ~1R0q 17.1 GVNEOCPJ95
     ZTs0037 KC2023 01 27.02633011 09 33.643+22 28 48.54   ~1R0q 17.4 GVNEOCPJ95
     ZTs0037 KC2023 01 27ISy#qLDDcI(o:E[m3Dx.J!w\clickyq6yQ[^4%V`$$M\sA[.4n-f858
     ZTs0037 KC2023 01 27WWfX.I2_eWtA;/!KI%',bT'xcolp5#'65%H;gLlbhUcm%Bs`(\;/858
     ZTs0037  C2023 01 27ZXX(n^/Jtx)v:!c@m%bIiV(1OB:e]#yo\Zw*`T8_]4S8Qheres+VV27
     ZTs0037 KC2023 01 27\.y8j1A3%-J(,@fqH^XVv=mdJ+oC7for%y%qjj9WoF'R,!JMMs1+858
     ZTs0037  C2023 01 27)bwLL(vIsV)M5=mNOmU[1,M^Y8CbE9'KvWtI3#vHXm(KA2?Qm?bSV27
     ZTs0037  C2023 01 27F2^CO9Bh@mdwghdEd2#XoNy'mPtfl(2l:K5Cd12^$P[FyE]1H;P:V27
     ZTs0037  C2023 01 27aDE6d7w*Xs@+h$cr9explanationck8.N#Vi^-]E+([o@yF$2QhBV27
     ZTs0037  C2023 01 276V(9cM+L!/(Dmi\8Ndtx^Mx_!nMC*]D^@7HmCNIRVGy)7(He,m%IV27

Station data:
(858) Tebbutt Observatory, Edgewood  (N35.093869 W106.220000)  US/New Mexico.
    Observer F. B. Zoltowski. 0.16-m refractor + CCD0.51-m Schmidt-Cassegrain
   + CCD.
(I41) Palomar Mountain--ZTF  (N33.357338 W116.859780)  US/California.
   Observers B. T. Bolin, Z. T. F. Collaboration. Measurers B. T. Bolin,
   Z.-Y. Lin, F. J. Masci. 1.2-m f/2.4 Schmidt.
(J95) Great Shefford  (N51.474969 W1.447003)  UK/England.  Observer P.
   Birtwhistle. 0.41-m f/6.3 Schmidt-Cassegrain + CCD.
(K19) PASTIS Observatory, Banon  (N43.999459 E5.647310)  France.  Observer C.
   Demeautis. 0.16-m f/3.3 reflector + CCD.
(T05) ATLAS-HKO, Haleakala  (N20.707571 W156.257010)  US/Hawaii.  Observers
   L. Denneau, A. Heinze, H. Weiland, J. Tonry, H. Flewelling, A.
   Fitzsimmons, D. Young, B. Stalder. Measurers L. Denneau, A. Heinze, J.
   Tonry. 0.5-m f/2.0 Schmidt + CCD.
(V27) North Mesa Observatory, Los Alamos  (N35.890112 W106.281810)  US/New
   Mexico.

Orbital elements:  ZTs0037
   Perihelion 2022 Dec 26.42788 +/- 0.00732 TT = 10:16:08 (JD 2459939.92788)
Epoch 2023 Jan 27.0 TT = JDT 2459971.5   Earth MOID: 0.0174      AutoNEOCP
M   8.66031697 +/- 0.027            (J2000 ecliptic)
n   0.27430268 +/- 0.000803         Peri.  134.31421 +/- 0.0026
a   2.34593518 +/- 0.00457          Node   310.34472 +/- 0.0013
e   0.6135863 +/- 0.000782          Incl.    8.23102 +/- 0.007
P   3.59                   H 23.86  G  0.15   U  8.0
q 0.90650137 +/- 6.65e-5    Q 3.78536899 +/- 0.00921
21 of 22 observations 2023 Jan. 24-27; mean residual 0".37
Residuals in arcseconds: 
230124 I41  .36+  .37-    230126 K19  .24-  .19-    230127 V27  .39+  .53-    
230124 I41  .69-  .16+    230126 K19  .23-  .02-    230127 858  .25+  .23+    
230124 I41  .30+  .10-    230127 J95  .01-  .17+    230127 V27  .27+  1.1-    
230124 I41  .36+  .11+    230127 J95  .02+  .02+    230127 V27(12.3+  9.0+)   
230126 T05  .29-  .00     230127 J95  .01+  .16+    230127 V27  .06+  .95-    
230126 T05  .53-  .29-    230127 J95  .07-  .05+    230127 V27  .71+  .42-    
230126 T05  .58-  .15-    230127 858  .03+  .08+    
230126 K19  .22-  .31+    230127 858  .25+  .03+    

Ephemerides (geocentric):
Date (UTC) HH   RA             Dec           delta  r     elong  mag " sig PA
---- --------  ------------   ------------  ------ ------ -----  --- --------
2023 01 27 13  11 00 31.957   +18 47 19.76  .03128 1.0109 146.2 17.8 .199 135
2023 01 27 14  10 59 53.900   +18 30 54.17  .03151 1.0111 146.4 17.8 .199 135
2023 01 27 15  10 59 16.513   +18 14 42.66  .03175 1.0113 146.5 17.8 .199 134
2023 01 27 16  10 58 39.780   +17 58 44.98  .03198 1.0116 146.7 17.8 .200 133
2023 01 27 17  10 58 03.684   +17 43 00.93  .03222 1.0118 146.8 17.8 .200 133
2023 01 27 18  10 57 28.209   +17 27 30.25  .03246 1.0121 147.0 17.8 .200 132
2023 01 27 19  10 56 53.338   +17 12 12.74  .03270 1.0123 147.1 17.9 .200 131
2023 01 27 20  10 56 19.058   +16 57 08.16  .03294 1.0126 147.3 17.9 .200 131
2023 01 27 21  10 55 45.352   +16 42 16.31  .03317 1.0129 147.4 17.9 .201 130
2023 01 27 22  10 55 12.208   +16 27 36.96  .03342 1.0131 147.5 17.9 .201 129
2023 01 27 23  10 54 39.611   +16 13 09.89  .03366 1.0134 147.7 17.9 .201 129
2023 01 28 00  10 54 07.548   +15 58 54.91  .03390 1.0136 147.8 17.9 .201 128
2023 01 28 01  10 53 36.007   +15 44 51.81  .03414 1.0139 147.9 17.9 .201 127
2023 01 28 02  10 53 04.974   +15 31 00.38  .03439 1.0141 148.0 17.9 .202 127
2023 01 28 03  10 52 34.437   +15 17 20.42  .03463 1.0144 148.2 18.0 .202 126
2023 01 28 04  10 52 04.386   +15 03 51.74  .03488 1.0146 148.3 18.0 .202 125
2023 01 28 05  10 51 34.808   +14 50 34.14  .03512 1.0149 148.4 18.0 .202 124
2023 01 28 06  10 51 05.692   +14 37 27.44  .03537 1.0151 148.5 18.0 .202 124
2023 01 28 07  10 50 37.029   +14 24 31.44  .03562 1.0154 148.6 18.0 .203 123
2023 01 28 08  10 50 08.806   +14 11 45.97  .03586 1.0156 148.7 18.0 .203 122
2023 01 28 09  10 49 41.015   +13 59 10.84  .03611 1.0159 148.8 18.0 .203 122
2023 01 28 10  10 49 13.645   +13 46 45.88  .03636 1.0161 149.0 18.0 .203 121
2023 01 28 11  10 48 46.688   +13 34 30.91  .03661 1.0164 149.1 18.1 .204 120
2023 01 28 12  10 48 20.133   +13 22 25.76  .03686 1.0166 149.2 18.1 .204 120
2023 01 28 13  10 47 53.973   +13 10 30.27  .03711 1.0169 149.3 18.1 .204 119
2023 01 28 14  10 47 28.197   +12 58 44.27  .03736 1.0171 149.4 18.1 .205 118
2023 01 28 15  10 47 02.798   +12 47 07.59  .03762 1.0174 149.4 18.1 .205 118
2023 01 28 16  10 46 37.768   +12 35 40.09  .03787 1.0177 149.5 18.1 .205 117
2023 01 28 17  10 46 13.098   +12 24 21.59  .03812 1.0179 149.6 18.1 .206 116
2023 01 28 18  10 45 48.782   +12 13 11.96  .03838 1.0182 149.7 18.1 .206 116
2023 01 28 19  10 45 24.810   +12 02 11.03  .03863 1.0184 149.8 18.2 .206 115
2023 01 28 20  10 45 01.177   +11 51 18.67  .03888 1.0187 149.9 18.2 .207 114
2023 01 28 21  10 44 37.874   +11 40 34.73  .03914 1.0189 150.0 18.2 .207 114
2023 01 28 22  10 44 14.896   +11 29 59.06  .03940 1.0192 150.1 18.2 .208 113
2023 01 28 23  10 43 52.234   +11 19 31.53  .03965 1.0194 150.1 18.2 .208 112
2023 01 29 00  10 43 29.883   +11 09 12.00  .03991 1.0197 150.2 18.2 .208 112
2023 01 29 01  10 43 07.837   +10 59 00.33  .04017 1.0200 150.3 18.2 .209 111
2023 01 29 02  10 42 46.088   +10 48 56.40  .04042 1.0202 150.4 18.2 .209 110
2023 01 29 03  10 42 24.632   +10 39 00.08  .04068 1.0205 150.4 18.3 .210 110
2023 01 29 04  10 42 03.462   +10 29 11.23  .04094 1.0207 150.5 18.3 .210 109
2023 01 29 05  10 41 42.572   +10 19 29.74  .04120 1.0210 150.6 18.3 .211 108
2023 01 29 06  10 41 21.957   +10 09 55.49  .04146 1.0212 150.7 18.3 .211 108
2023 01 29 07  10 41 01.611   +10 00 28.34  .04172 1.0215 150.7 18.3 .212 107
2023 01 29 08  10 40 41.529   +09 51 08.20  .04198 1.0218 150.8 18.3 .212 107
2023 01 29 09  10 40 21.706   +09 41 54.93  .04224 1.0220 150.9 18.3 .213 106
2023 01 29 10  10 40 02.137   +09 32 48.44  .04250 1.0223 150.9 18.3 .214 105
2023 01 29 11  10 39 42.817   +09 23 48.60  .04277 1.0225 151.0 18.3 .214 105
2023 01 29 12  10 39 23.742   +09 14 55.32  .04303 1.0228 151.1 18.4 .215 104